Location: Mexico
(19.4000°N, 99.1500°W)
Time: 07:27:16
(UTC-06:00)

ISS - Pass Details

Date: 17 September 2019
Orbit: 411 x 421 km, 51.6° (Epoch: 18 September)

Event Time Altitude Azimuth Distance (km) Brightness Sun altitude
Exits shadow 05:20:26 19° 321° (NW) 1,054 -2.0 -15.9°
Maximum altitude 05:22:42 88° 237° (WSW) 418 -3.9 -15.3°
Drops below altitude 10° 05:26:02 10° 142° (SE) 1,484 -0.6 -14.6°
Sets 05:28:07 0° 142° (SE) 2,346 0.5 -14.1°
